Weather Roundup
Issued by NWS

Home | Current Version | Previous Version | Text Only | Print | Product List | Glossary On
Versions: 1 2 3 4 5 6 7 8 9 10 11 12 13 14 15 16 17 18 19 20 21 22 23 24 25 26 27 28 29 30 31 32 33 34 35 36 37 38 39 40 41 42 43 44 45 46 47 48 49 50
000
NZUS93 KARX 181959
HRRWXR

CURRENT HOURLY OBSERVATIONS ACROSS
MUCH OF THE UPPER MISSISSIPPI VALLEY
NATIONAL WEATHER SERVICE LA CROSSE WI
300 PM CDT FRI APR 18 2014


...SOUTHEAST MINNESOTA...


CITY           SKY/WX    TMP DP  RH WIND       PRES   REMARKS
ROCHESTER      SUNNY     51  29  42 SE8       30.32F
ROCHESTER/MAYO FAIR      49  23  35 E6        30.33F
WINONA         MOSUNNY   54  25  32 E6        30.35F
AUSTIN         SUNNY     52  28  40 SE8       30.30F
ALBERT LEA     SUNNY     54  30  40 SE8       30.28F
DODGE CENTER   MOSUNNY   54  28  37 E7        30.31F
PRESTON        SUNNY     52  28  39 E8        30.33F
OWATONNA       MOSUNNY   52  34  50 SE8       30.30F
FARIBAULT      MOSUNNY   54  28  37 E10       30.31F
$$

...ELSEWHERE IN MINNESOTA...


CITY           SKY/WX    TMP DP  RH WIND       PRES   REMARKS
MINNEAPOLIS    PTSUNNY   51  29  42 E12       30.32F
INTNL FALLS    SUNNY     44  12  27 SE12G17   30.31F
DULUTH         SUNNY     36  19  50 SE13      30.36F WCI  27
RED WING       SUNNY     52  25  35 SE8       30.34S
REDWOOD FALLS  MOSUNNY   52  36  54 SE25G31   30.20F
MANKATO        MOSUNNY   54  32  43 SE15      30.28F
WORTHINGTON    SUNNY     57  30  35 S22       30.17F
FAIRMONT       SUNNY     55  32  41 SE17G24   30.25F
$$

...SOUTHWEST WISCONSIN...


CITY           SKY/WX    TMP DP  RH WIND       PRES   REMARKS
LA CROSSE      SUNNY     53  23  31 VRB5      30.35F
PRAIRIE DU CHI SUNNY     55  18  24 W6        30.33F
BOSCOBEL       SUNNY     57  22  25 N3        30.34F
LONE ROCK      NOT AVBL
PLATTEVILLE    SUNNY     55  27  35 NW5       30.34S
FORT MC COY    NOT AVBL
VIROQUA        FAIR      51  26  38 CALM      30.34F
WIS DELLS      SUNNY     51  25  35 SE6       30.34S
$$

...ELSEWHERE IN WISCONSIN...


CITY           SKY/WX    TMP DP  RH WIND       PRES   REMARKS
MILWAUKEE      MOSUNNY   43  31  62 NE10      30.37F
MADISON        MOSUNNY   53  28  38 VRB5      30.34F
GREEN BAY      SUNNY     47  29  49 E6        30.36
EAU CLAIRE     SUNNY     50  20  30 VRB5      30.35F
BLACK RVR FLS  FAIR      54  20  26 N5        30.35S
MEDFORD        MOSUNNY   43  20  40 N6        30.36R
WAUSAU         SUNNY     48  18  30 N5        30.33F
WIS RAPIDS     SUNNY     51  21  30 NW9       30.36S
MARSHFIELD     SUNNY     49  23  36 VRB5      30.35R
RICE LAKE      MOSUNNY   45  27  49 CALM      30.38F
$$

...NORTHEAST IOWA...


CITY           SKY/WX    TMP DP  RH WIND       PRES   REMARKS
WATERLOO       SUNNY     57  29  34 SE8       30.30F
DUBUQUE        SUNNY     57  30  35 N9        30.32F
DECORAH        SUNNY     54  27  35 VRB6      30.31F
MASON CITY     SUNNY     57  31  37 SE12      30.29F
CHARLES CITY   SUNNY     54  28  37 S5G13     30.32S
OELWEIN        SUNNY    N/A N/A N/A S6        30.32F
$$

...ELSEWHERE IN IOWA...


CITY           SKY/WX    TMP DP  RH WIND       PRES   REMARKS
DES MOINES     MOSUNNY   63  32  31 SE10      30.26F
IOWA CITY      SUNNY     59  31  34 VRB5      30.32F
FORT DODGE     SUNNY     61  34  36 S12       30.25F
MARSHALLTOWN   SUNNY     58  32  37 SE10      30.28F
CEDAR RAPIDS   SUNNY     58  26  29 CALM      30.30F
$$

...NORTHERN ILLINOIS...


CITY           SKY/WX    TMP DP  RH WIND       PRES   REMARKS
CHICAGO-OHARE  MOSUNNY   51  33  50 NE12      30.34F
DUPAGE         SUNNY     58  37  45 NE10      30.30F
CHICAGO-MIDWAY MOSUNNY   51  36  56 E10       30.34F
MOLINE         SUNNY     62  30  29 CALM      30.30F
ROCKFORD       MOSUNNY   59  28  30 NE6       30.32F
STERLING       SUNNY     61  34  36 E5        30.30F
PEORIA         SUNNY     66  35  31 VRB5      30.30F
$$

NOTE: "FAIR" INDICATES FEW OR NO CLOUDS BELOW 12,000 FEET WITH NO
SIGNIFICANT WEATHER AND/OR OBSTRUCTIONS TO VISIBILITY. WIND
SPEEDS ARE IN MILES-PER-HOUR.



USA.gov is the U.S. government's official web portal to all federal, state and local government web resources and services.